Regional Weather Roundup
Issued by NWS Jackson, KY

Home | Current Version | Previous Version | Graphics & Text | Print | Product List | Glossary On
Versions: 1 2 3 4 5 6 7 8 9 10 11 12 13 14 15 16 17 18 19 20 21 22 23 24 25 26 27 28 29 30 31 32 33 34 35 36 37 38 39 40 41 42 43 44 45 46 47 48 49 50
000
ASUS43 KJKL 051910
RWRJKL

EAST KENTUCKY HOURLY WEATHER ROUNDUP
NATIONAL WEATHER SERVICE JACKSON KY
300 PM EDT SUN JUL 05 2015

NOTE: "FAIR" INDICATES FEW OR NO CLOUDS BELOW 12,000 FEET WITH
NO SIGNIFICANT WEATHER AND/OR OBSTRUCTIONS TO VISIBILITY.

* THESE REPORTS ARE NOT UNDER NWS QUALITY CONTROL AND MAY NOT
  REPORT WEATHER SUCH AS PRECIPITATION AND FOG.

KYZ079-080-083-085-087-088-110-112-115-119-120-052000
...EASTERN KENTUCKY...

CITY           SKY/WX    TMP DP  RH WIND       PRES   REMARKS
JACKSON        LGT RAIN  71  68  90 NW7       30.09S
LONDON         CLOUDY    70  65  84 N8        30.08S
SOMERSET*      CLOUDY    72  66  83 CALM      30.09R
MONTICELLO*    PTSUNNY   76  70  82 NW8       30.11S
MIDDLESBORO*   RAIN      73  68  83 SW9       30.06F
HARLAN APT*      N/A     73  64  73 W3        30.07F
HAZARD APT*    LGT RAIN  72  72 100 NW3       30.08S
BLACK MTN*       N/A     68  64  88 SE1         N/A
PIKEVILLE APT* PTSUNNY   75  68  78 N7        30.06F
BIG SANDY*     MOCLDY    76  69  78 NE5       30.06F
MOREHEAD APT*  LGT RAIN  72  68  88 E6        30.11S
$$

KYZ035-036-041-042-044-050-067-078-099-052000
...CENTRAL KENTUCKY...

CITY           SKY/WX    TMP DP  RH WIND       PRES   REMARKS
MT STERLING*   CLOUDY    72  68  88 NE5       30.10S
FLEMING/MASON* RAIN      72  66  83 E7        30.10S
DANVILLE*      CLOUDY    75  68  78 N5        30.10R
RICHMOND*      CLOUDY    70  66  88 CALM      30.08S
LEXINGTON      CLOUDY    75  67  76 NE7       30.09S
FRANKFORT      CLOUDY    77  64  64 N6        30.08R
$$

KYZ091>093-OHZ055-061-077-WVZ005-015-034-035-042-052000
...SOUTHERN OHIO/WEST VIRGINIA...

CITY           SKY/WX    TMP DP  RH WIND       PRES   REMARKS
COVINGTON      CLOUDY    77  59  53 E7        30.09S
COLUMBUS       CLOUDY    79  61  53 NE6       30.10S
DAYTON         CLOUDY    77  60  55 CALM      30.11F
WILMINGTON     CLOUDY    75  60  59 E6        30.09F
HUNTINGTON     CLOUDY    75  69  81 NE3       30.06F
CHARLESTON     TSTM      81  69  67 E9        30.06F
PINEVILLE*     PTSUNNY   78  71  78 MISG      30.13S
BECKLEY        MOSUNNY   79  64  60 SE12      30.13F
BLUEFIELD      MOSUNNY   77  65  66 SE9       30.15F
$$

VAZ002-007-008-TNZ017-027-036-066-071-052000
...SOUTHWEST VIRGINIA/EAST TENNESSEE...

CITY           SKY/WX    TMP DP  RH WIND       PRES   REMARKS
WISE*          CLOUDY    72  63  73 W10       30.12F
JONESVILLE*      N/A    N/A N/A N/A MISG        N/A
ABINGDON*      CLOUDY    79  66  63 N5        30.08F
BRISTOL        CLOUDY    77  70  79 W9        30.06R THUNDER
OAK RIDGE      LGT RAIN  75  67  76 VRB3      30.08S
CROSSVILLE     CLOUDY    72  67  84 W6        30.12S
NASHVILLE      PTSUNNY   83  69  62 NE3       30.08F
$$

...KEY TO REMARKS...
VSB - VISIBILITY IN MILES
WCI - WIND CHILL INDEX
HX  - HEAT INDEX

$$



USA.gov is the U.S. government's official web portal to all federal, state and local government web resources and services.